EW1168 Weather Reports


Display with metric or nautical units.
time (UTC)temp
F
wind
direction
speed
MPH
gust
MPH
rain 1hr
in
rain 24hr
in
rain mn
in
humidity
%
barometer
mb
20191020172517 56 347 5.0 11.0 0.00 0.01 0.01 85 1009.5
20191020171515 56 346 4.0 9.0 0.00 0.01 0.01 85 1009.6
20191020170515 56 355 5.0 11.0 0.00 0.01 0.01 85 1009.5
20191020165515 56 334 5.0 12.0 0.00 0.01 0.01 85 1009.3
20191020164518 56 0 5.0 13.0 0.00 0.01 0.01 84 1009.2
20191020163514 56 325 5.0 10.0 0.00 0.01 0.01 85 1009.2
20191020162515 56 344 4.0 11.0 0.00 0.01 0.01 85 1009.0
20191020161515 56 355 5.0 10.0 0.00 0.01 0.01 84 1009.1
20191020160515 56 12 5.0 11.0 0.00 0.01 0.01 85 1009.1
20191020155514 56 38 5.0 11.0 0.00 0.01 0.01 84 1009.1
20191020154515 56 24 5.0 11.0 0.00 0.01 0.01 83 1008.8
20191020153514 56 351 5.0 9.0 0.00 0.01 0.01 83 1008.8
20191020152515 57 10 5.0 11.0 0.00 0.01 0.01 82 1008.6
20191020151515 57 48 5.0 10.0 0.00 0.01 0.01 82 1008.5
20191020150514 57 329 5.0 10.0 0.00 0.01 0.01 82 1008.4
20191020145514 57 343 6.0 13.0 0.00 0.02 0.01 82 1008.1
20191020144515 57 350 6.0 10.0 0.00 0.02 0.01 82 1008.2
20191020143521 57 355 5.0 11.0 0.00 0.02 0.01 82 1008.3
20191020142517 57 355 5.0 10.0 0.00 0.02 0.01 82 1008.4
20191020141512 58 106 6.0 11.0 0.00 0.02 0.01 81 1008.3
20191020140512 58 329 5.0 11.0 0.00 0.02 0.01 82 1008.0
20191020135513 57 5 5.0 10.0 0.00 0.02 0.01 81 1008.2
20191020134512 58 25 4.0 9.0 0.00 0.02 0.01 81 1008.3
20191020133512 57 69 4.0 8.0 0.00 0.02 0.01 80 1008.6
20191020132512 57 5 3.0 6.0 0.00 0.02 0.01 81 1008.4
20191020131512 57 0 4.0 9.0 0.00 0.02 0.01 80 1008.6
20191020130512 57 349 4.0 7.0 0.00 0.02 0.01 81 1008.2
20191020125512 57 91 3.0 7.0 0.01 0.02 0.01 81 1008.3
20191020124522 57 16 3.0 7.0 0.01 0.02 0.01 81 1008.4
20191020123512 57 340 3.0 8.0 0.01 0.02 0.01 81 1008.2
20191020122523 58 32 4.0 8.0 0.01 0.02 0.01 80 1008.3
20191020121512 57 11 4.0 7.0 0.01 0.02 0.01 81 1008.2
20191020120512 57 71 4.0 9.0 0.01 0.02 0.01 81 1008.1
20191020115512 57 5 4.0 9.0 0.00 0.02 0.00 82 1008.1
20191020114512 57 5 3.0 8.0 0.00 0.02 0.00 83 1008.4
20191020113517 57 5 4.0 9.0 0.00 0.02 0.00 83 1008.4
20191020112520 57 5 4.0 9.0 0.00 0.02 0.00 84 1008.1
20191020111515 56 5 4.0 8.0 0.00 0.02 0.00 84 1008.1
20191020110510 56 355 5.0 10.0 0.00 0.02 0.00 84 1008.0
20191020105509 56 347 4.0 6.0 0.00 0.02 0.00 85 1008.2
20191020104511 56 5 4.0 7.0 0.00 0.02 0.00 86 1008.2
20191020103510 56 355 4.0 7.0 0.00 0.02 0.00 88 1008.1
20191020102510 56 5 4.0 7.0 0.00 0.02 0.00 92 1008.1
20191020101510 55 346 3.0 6.0 0.00 0.02 0.00 94 1008.0
20191020100509 54 342 2.0 5.0 0.00 0.02 0.00 95 1008.2
20191020095510 55 155 1.0 3.0 0.00 0.02 0.00 96 1007.9
20191020094516 54 171 0.0 1.0 0.00 0.02 0.00 96 1007.9
20191020093520 54 171 0.0 0.0 0.00 0.02 0.00 96 1008.1
20191020092516 53 171 0.0 1.0 0.00 0.02 0.00 95 1008.0
20191020091514 53 171 0.0 0.0 0.00 0.02 0.00 95 1007.9
20191020090507 53 171 0.0 1.0 0.00 0.02 0.00 95 1008.0
20191020085509 53 171 0.0 1.0 0.00 0.02 0.00 95 1008.0
20191020084507 53 171 0.0 1.0 0.00 0.02 0.00 96 1007.8
20191020083509 53 171 0.0 1.0 0.00 0.02 0.00 96 1007.5
20191020082508 52 171 0.0 2.0 0.00 0.02 0.00 96 1007.3
20191020081505 51 171 0.0 2.0 0.00 0.02 0.00 95 1007.4
20191020080504 51 171 0.0 0.0 0.00 0.02 0.00 95 1007.3
20191020075510 51 171 0.0 1.0 0.00 0.02 0.00 95 1007.3
20191020074503 51 171 0.0 1.0 0.00 0.02 0.00 95 1007.4
20191020073506 50 171 0.0 0.0 0.00 0.02 0.00 95 1007.3
20191020072510 50 171 0.0 1.0 0.00 0.02 0.00 95 1007.3
20191020071501 50 171 0.0 1.0 0.00 0.02 0.00 95 1007.1
20191020070459 50 171 0.0 0.0 0.00 0.02 0.00 95 1007.2
20191020065500 50 171 0.0 1.0 0.00 0.02 0.00 95 1006.9
20191020064459 50 171 0.0 1.0 0.00 0.02 0.00 94 1007.0
20191020063459 50 171 0.0 2.0 0.00 0.02 0.00 94 1006.7
20191020062458 50 171 0.0 2.0 0.00 0.02 0.00 94 1006.6
20191020061455 50 171 0.0 1.0 0.00 0.02 0.00 94 1006.5
20191020060455 50 171 0.0 1.0 0.00 0.02 0.00 94 1006.4
20191020055454 50 171 0.0 1.0 0.00 0.02 0.00 94 1006.5
20191020054453 50 171 0.0 1.0 0.00 0.02 0.00 94 1006.4
20191020053451 50 171 0.0 1.0 0.00 0.02 0.00 94 1006.4
20191020052451 50 171 0.0 2.0 0.00 0.02 0.00 94 1006.5
20191020051451 50 171 1.0 3.0 0.00 0.02 0.00 94 1006.6
20191020050449 50 171 0.0 0.0 0.00 0.02 0.00 94 1006.6
20191020045449 50 171 0.0 0.0 0.00 0.02 0.00 94 1006.4
20191020044447 50 171 0.0 0.0 0.00 0.02 0.00 94 1006.4
20191020043446 50 171 0.0 0.0 0.00 0.02 0.00 94 1006.3
20191020042445 50 171 0.0 0.0 0.00 0.02 0.00 93 1006.1
20191020041458 50 171 0.0 0.0 0.00 0.02 0.00 93 1006.0
20191020040445 50 171 0.0 0.0 0.00 0.02 0.00 93 1005.8
20191020035445 51 171 0.0 0.0 0.00 0.02 0.00 93 1005.7
20191020034445 51 171 0.0 0.0 0.00 0.02 0.00 93 1005.8
20191020033445 51 171 0.0 0.0 0.00 0.02 0.00 93 1005.7
20191020032443 51 171 0.0 1.0 0.00 0.02 0.00 93 1005.8
20191020031443 52 171 0.0 2.0 0.00 0.02 0.00 93 1005.8
20191020030440 52 171 1.0 3.0 0.00 0.02 0.00 93 1005.6
20191020025441 52 171 1.0 2.0 0.00 0.02 0.00 93 1005.5
20191020024440 52 171 0.0 2.0 0.00 0.02 0.00 93 1005.5
20191020023441 52 171 1.0 3.0 0.00 0.02 0.00 93 1005.5
20191020022441 52 171 1.0 3.0 0.00 0.02 0.00 93 1005.4
20191020021441 52 225 2.0 3.0 0.00 0.02 0.00 93 1005.5
20191020020440 52 225 1.0 3.0 0.00 0.02 0.00 92 1005.8
20191020015440 52 225 2.0 4.0 0.00 0.02 0.00 92 1005.6
20191020014439 52 216 1.0 4.0 0.00 0.02 0.00 92 1005.5
20191020013439 52 194 2.0 4.0 0.00 0.02 0.00 92 1005.5
20191020012436 52 178 2.0 3.0 0.00 0.02 0.00 92 1005.5
20191020011436 52 177 2.0 4.0 0.00 0.02 0.00 92 1005.6
20191020010435 52 198 2.0 4.0 0.00 0.02 0.00 92 1005.7
20191020005438 52 198 2.0 3.0 0.00 0.02 0.00 92 1005.5
20191020004436 53 205 2.0 4.0 0.00 0.02 0.00 92 1005.4
20191020003436 53 185 2.0 5.0 0.00 0.02 0.00 92 1005.5
20191020002438 53 216 2.0 6.0 0.00 0.02 0.00 92 1005.5
20191020001432 53 186 3.0 7.0 0.00 0.02 0.00 92 1005.7
20191020000433 53 188 3.0 7.0 0.00 0.02 0.00 92 1005.7
20191019235432 53 197 4.0 8.0 0.00 0.02 0.00 92 1005.7
20191019234432 52 171 3.0 6.0 0.00 0.02 0.00 92 1005.7
20191019233433 52 202 3.0 9.0 0.00 0.02 0.00 92 1005.7
20191019232430 52 193 3.0 6.0 0.00 0.02 0.00 92 1005.6
20191019231428 52 191 3.0 7.0 0.00 0.02 0.00 92 1005.5
20191019230428 52 210 3.0 7.0 0.00 0.02 0.00 92 1005.4
20191019225428 52 184 4.0 7.0 0.00 0.02 0.00 92 1005.4
20191019224427 52 204 4.0 8.0 0.00 0.02 0.00 92 1005.3
20191019223426 52 205 4.0 7.0 0.00 0.02 0.00 92 1005.3
20191019222426 53 174 4.0 8.0 0.00 0.02 0.00 92 1005.4
20191019221426 53 178 4.0 9.0 0.00 0.02 0.00 92 1005.2
20191019220427 53 175 3.0 6.0 0.00 0.02 0.00 92 1005.2
20191019215425 53 188 4.0 7.0 0.00 0.02 0.02 92 1005.0
20191019214426 53 200 4.0 8.0 0.00 0.02 0.02 92 1004.9
20191019213426 53 208 4.0 7.0 0.00 0.02 0.02 92 1004.8
20191019212425 53 199 4.0 7.0 0.00 0.02 0.02 92 1004.7
20191019211426 53 155 3.0 7.0 0.00 0.02 0.02 91 1004.6
20191019210426 53 205 3.0 6.0 0.00 0.02 0.02 91 1004.5
20191019205425 53 197 3.0 6.0 0.00 0.02 0.02 91 1004.5
20191019204426 53 171 3.0 6.0 0.00 0.02 0.02 91 1004.4
20191019203425 53 183 4.0 7.0 0.00 0.02 0.02 90 1004.4
20191019202423 53 209 4.0 7.0 0.00 0.02 0.02 90 1004.2
20191019201424 53 188 4.0 8.0 0.00 0.02 0.02 90 1004.3
20191019200423 53 211 3.0 7.0 0.00 0.02 0.02 90 1004.3
20191019195423 53 159 3.0 9.0 0.00 0.02 0.02 89 1004.2
20191019194423 53 236 4.0 7.0 0.00 0.02 0.02 89 1004.1
20191019193423 53 171 4.0 7.0 0.00 0.02 0.02 89 1003.9
20191019192423 53 188 4.0 9.0 0.00 0.02 0.02 89 1003.9
20191019191423 53 173 4.0 9.0 0.00 0.02 0.02 89 1003.8
20191019190422 53 189 5.0 9.0 0.00 0.02 0.02 89 1003.7
20191019185423 53 215 5.0 12.0 0.00 0.02 0.02 90 1003.7
20191019184423 53 188 4.0 8.0 0.00 0.02 0.02 90 1003.7
20191019183422 53 175 4.0 9.0 0.00 0.02 0.02 90 1003.7
20191019182423 53 170 4.0 9.0 0.00 0.02 0.02 90 1003.6
20191019181423 53 209 4.0 8.0 0.00 0.02 0.02 90 1003.6
20191019180423 53 153 4.0 9.0 0.00 0.02 0.02 91 1003.6
20191019175420 53 185 4.0 8.0 0.00 0.06 0.02 91 1003.5
20191019174421 53 181 4.0 8.0 0.00 0.06 0.02 90 1003.4
20191019173421 53 211 4.0 9.0 0.00 0.06 0.02 90 1003.3